Location: Sungai Bunut
(2.6333°N, 113.7333°E)
Time: 15:10:49
(UTC+00:00)

Vanguard 3 - Pass Details

Date: 04 December 2023
Orbit: 508 x 3239 km, 33.4° (Epoch: 28 February)

Event Time Altitude Azimuth Distance (km) Brightness Sun altitude
Rises 07:06:44 0° 214° (SW) 6,313 12.4 41.3°
Reaches altitude 10° 07:12:12 10° 201° (SSW) 5,663 12.2 40.1°
Maximum altitude 07:25:43 24° 153° (SSE) 5,022 11.4 37.3°
Drops below altitude 10° 07:39:50 10° 106° (ESE) 5,998 11.3 34.2°
Sets 07:45:43 0° 94° (E) 6,759 11.4 32.9°
